SCP
0 0 0 0 0 0 0 0 0 0 0 0 0 0 0 0 0 0 0 0 0 0 0 0 0 0 0 0 0 0 0 0 0 0 0 0 0 0 0 0 0 0 0
0 0 0 0 0 0 0 0 0 0 0 0 0 0 0 0 0 0 0 0 0 0 0 0 0 0 0 0 0 0 0 0 0 0 0 0 0 0 0 0 0 0 0
0 0 0 0 0 0 0 0 0 0 0 0 0 0 0 0 0 0 0 0 0 0 0 0 0 0 0 0 0 0 0 0 0 0 0 0 0 0 0 0 0 0 0
0 0 0 0 0 0 0 0 0 0 0 0 0 0 0 0 0 0 0 0 0 0 0 0 0 0 0 0 0 0 0 0 0 0 0 0 0 0 0 0 0 0 0
0 0 0 0 0 0 0 0 0 0 0 0 0 0 0 0 0 0 0 0 0 0 0 0 0 0 0 0 0 0 0 0 0 0 0 0 0 0 0 0 0 0 0
0 0 0 0 0 0 0 0 0 0 0 0 0 0 0 0 0 0 0 0 0 0 0 0 0 0 0 0 0 0 0 0 0 0 0 0 0 0 0 0 0 0 0
0 0 0 0 0 0 0 0 0 0 0 0 0 0 0 0 0 0 0 0 0 0 0 0 0 0 0 0 0 0 0 0 0 0 0 0 0 0 0 0 0 0 0
0 0 0 0 0 0 0 0 0 0 0 0 0 0 0 0 0 0 0 0 0 0 0 0 0 0 0 0 0 0 0 0 0 0 0 0 0 0 0 0 0 0 0
0 0 0 0 0 0 0 0 0 0 0 0 0 0 0 0 0 0 0 0 0 0 0 0 0 0 0 0 0 0 0 0 0 0 0 0 0 0 0 0 0 0 0
0 0 0 0 0 0 0 0 0 0 0 0 0 0 0 0 0 0 0 0 0 0 0 0 0 0 0 0 0 0 0 0 0 0 0 0 0 0 0 0 0 0 0
0 0 0 0 0 0 0 0 0 0 0 0 0 0 0 0 0 0 0 0 0 0 0 0 0 0 0 0 0 0 0 0 0 0 0 0 0 0 0 0 0 0 0
0 0 0 0 0 0 0 0 0 0 0 0 0 0 0 0 0 0 0 0 0 0 0 0 0 0 0 0 0 0 0 0 0 0 0 0 0 0 0 0 0 0 0
0 0 0 0 0 0 0 0 0 0 0 0 0 0 0 0 0 0 0 0 0 0 0 0 0 0 0 0 0 0 0 0 0 0 0 0 0 0 0 0 0 0 0
0 0 0 0 0 0 0 0 0 0 0 0 0 0 0 0 0 0 0 0 0 0 0 0 0 0 0 0 0 0 0 0 0 0 0 0 0 0 0 0 0 0 0
0 0 0 0 0 0 0 0 0 0 0 0 0 0 0 0 0 0 0 0 0 0 0 0 0 0 0 0 0 0 0 0 0 0 0 0 0 0 0 0 0 0 0
0 0 0 0 0 0 0 0 0 0 0 0 0 0 0 0 0 0 0 0 0 0 0 0 0 0 0 0 0 0 0 0 0 0 0 0 0 0 0 0 0 0 0
0 0 0 0 0 0 0 0 0 0 0 0 0 0 0 0 0 0 0 0 0 0 0 0 0 0 0 0 0 0 0 0 0 0 0 0 0 0 0 0 0 0 0
0 0 0 0 0 0 0 0 0 0 0 0 0 0 0 0 0 0 0 0 0 0 0 0 0 0 0 0 0 0 0 0 0 0 0 0 0 0 0 0 0 0 0
0 0 0 0 0 0 0 0 0 0 0 0 0 0 0 0 0 0 0 0 0 0 0 0 0 0 0 0 0 0 0 0 0 0 0 0 0 0 0 0 0 0 0
0 0 0 0 0 0 0 0 0 0 0 0 0 0 0 0 0 0 0 0 0 0 0 0 0 0 0 0 0 0 0 0 0 0 0 0 0 0 0 0 0 0 0
0 0 0 0 0 0 0 0 0 0 0 0 0 0 0 0 0 0 0 0 0 0 0 0 0 0 0 0 0 0 0 0 0 0 0 0 0 0 0 0 0 0 0
0 0 0 0 0 0 0 0 0 0 0 0 0 0 0 0 0 0 0 0 0 0 0 0 0 0 0 0 0 0 0 0 0 0 0 0 0 0 0 0 0 0 0
0 0 0 0 0 0 0 0 0 0 0 0 0 0 0 0 0 0 0 0 0 0 0 0 0 0 0 0 0 0 0 0 0 0 0 0 0 0 0 0 0 0 0
0 0 0 0 0 0 0 0 0 0 0 0 0 0 0 0 0 0 0 0 0 0 0 0 0 0 0 0 0 0 0 0 0 0 0 0 0 0 0 0 0 0 0
0 0 0 0 0 0 0 0 0 0 0 0 0 0 0 0 0 0 0 0 0 0 0 0 0 0 0 0 0 0 0 0 0 0 0 0 0 0 0 0 0 0 0
0 0 0 0 0 0 0 0 0 0 0 0 0 0 0 0 0 0 0 0 0 0 0 0 0 0 0 0 0 0 0 0 0 0 0 0 0 0 0 0 0 0 0
Wind_Speed
2 3 5 7 8 9 9 8 8 8 8 8 8 8 8 8 8 8 8 8 8 8 9 9 9 9 9 10 10 11 11 11 11 10 10 10 10 11 11 11 9 6 11
4 4 5 6 7 8 8 8 8 8 7 7 8 8 8 8 8 8 8 8 8 8 8 8 9 9 9 9 9 10 10 11 10 10 10 8 9 10 10 10 9 7 11
4 4 5 6 7 8 8 7 7 7 7 7 8 8 8 8 8 8 8 8 8 8 8 8 8 9 9 9 9 9 9 10 10 9 8 4 5 9 9 9 9 10 10
5 4 4 6 7 8 7 7 7 7 7 7 7 7 7 7 7 8 8 8 7 7 7 7 8 8 8 8 9 9 9 9 9 8 4 3 3 7 8 8 8 8 8
4 3 4 6 7 7 7 7 7 7 7 7 7 7 7 7 7 7 7 7 7 7 7 7 7 7 7 8 8 8 8 8 8 7 4 3 2 6 7 7 8 8 7
4 3 4 7 7 7 7 7 7 7 7 7 7 7 6 6 7 7 7 6 6 6 6 6 7 7 7 7 7 8 8 7 6 4 3 3 2 5 6 7 7 7 7
4 3 4 6 6 6 6 6 6 7 7 7 6 6 6 6 6 6 6 6 6 6 6 6 7 7 7 7 7 7 7 7 4 3 2 2 3 6 6 6 6 7 7
4 3 3 5 5 5 5 5 6 6 6 6 6 6 6 6 5 5 5 5 5 6 6 6 6 7 7 7 7 7 7 6 4 3 2 2 3 5 6 6 6 6 6
4 4 2 3 3 4 4 4 5 5 5 5 5 5 5 5 5 5 5 5 5 6 6 6 6 6 7 7 7 7 7 7 3 2 2 1 3 4 5 6 6 6 6
3 3 2 2 2 2 2 3 4 5 5 5 5 5 5 4 4 4 4 5 5 6 6 6 6 6 6 7 7 7 6 5 3 2 1 1 3 4 4 5 5 5 5
2 2 2 2 2 2 2 2 3 4 4 4 4 5 4 2 2 2 3 4 5 5 5 6 6 6 6 6 6 6 5 2 2 2 1 2 2 3 3 4 4 4 4
4 3 2 2 2 2 2 2 1 2 3 3 2 3 2 2 2 2 4 4 4 5 5 6 6 6 5 3 4 4 2 2 2 1 1 2 2 2 2 3 3 3 3
4 3 3 3 3 3 2 2 1 1 2 2 2 2 2 2 2 2 2 2 2 3 3 3 4 2 2 2 2 2 2 1 1 1 2 3 2 2 2 2 2 2 2
3 3 2 3 3 3 2 2 2 1 2 1 2 2 2 2 1 1 2 1 1 1 2 2 2 2 2 2 2 1 1 1 1 1 2 4 3 2 1 1 1 1 1
4 3 3 3 3 3 3 2 2 2 2 2 2 2 2 2 2 1 1 1 1 1 1 1 1 2 1 1 1 1 1 1 1 1 1 4 3 2 1 1 1 1 1
5 4 3 3 3 3 3 3 2 2 2 2 2 2 2 2 2 2 2 1 1 1 1 1 1 1 1 1 1 1 0 1 1 1 1 2 4 4 2 1 2 2 2
5 4 4 4 3 4 4 4 3 3 3 2 2 2 2 2 3 3 2 1 1 1 2 1 2 1 1 1 1 1 1 1 1 0 0 1 1 3 3 2 2 3 3
3 4 4 3 3 4 4 3 3 3 3 3 2 3 3 3 3 3 2 2 1 2 2 2 1 1 1 1 1 1 1 0 0 0 0 0 1 1 3 3 3 3 4
5 4 4 3 4 3 3 3 3 3 3 3 3 3 3 4 4 3 2 2 2 2 1 1 1 1 1 0 0 0 0 0 0 0 0 0 1 1 1 3 4 4 4
4 4 4 4 3 2 2 1 2 2 2 2 3 3 3 3 4 3 2 2 2 2 1 1 1 1 1 1 1 1 1 1 0 1 1 1 1 1 1 1 2 3 5
3 3 4 4 3 3 2 2 2 3 3 2 2 3 4 4 4 4 3 3 3 2 2 2 1 1 1 1 1 1 1 1 1 1 1 1 1 1 1 1 1 1 2
4 4 5 5 4 4 3 3 2 2 2 2 2 2 3 3 4 4 4 3 3 3 3 2 2 1 1 1 1 1 2 2 2 1 1 1 2 1 1 2 2 2 2
4 5 5 5 5 4 3 2 2 2 1 1 1 2 3 3 3 3 4 4 4 4 4 3 3 3 2 1 1 2 2 2 2 2 1 1 1 1 2 2 2 3 3
5 4 4 4 4 4 4 4 4 4 3 3 2 2 2 3 3 3 3 4 4 3 3 3 3 2 3 2 1 0 1 2 1 2 2 1 2 2 3 2 2 3 3
2 2 3 3 3 3 4 5 5 4 3 2 2 2 2 2 3 3 3 3 4 3 3 4 3 3 3 3 2 2 1 0 1 1 3 3 2 2 2 3 3 3 3
1 0 1 2 2 3 4 5 5 5 3 3 2 2 2 1 2 2 3 3 3 3 4 4 4 4 3 3 3 2 2 2 2 2 3 3 3 3 3 3 3 3 2
Wind_Direction
187 184 182 151 141 135 130 126 123 121 119 114 116 114 110 107 108 108 111 110 107 101 98 94 91 87 85 80 78 75 73 71 70 71 71 72 76 78 78 76 71 66 76
160 168 172 154 144 138 134 128 128 127 123 118 117 118 115 111 111 112 111 109 107 103 98 95 91 89 87 84 82 78 74 70 69 68 67 65 72 76 77 79 77 73 76
137 153 164 153 145 141 136 132 134 129 123 120 119 119 115 114 114 113 111 108 106 105 101 96 91 89 86 87 87 83 79 74 71 67 61 49 64 77 77 77 76 73 73
138 142 148 143 144 142 139 136 134 130 125 121 118 115 116 118 116 115 112 109 107 105 102 98 94 92 90 90 89 87 84 79 70 64 50 42 51 78 79 78 76 74 72
130 131 138 137 141 142 141 140 134 131 128 122 119 117 115 117 117 117 114 110 107 105 103 102 98 94 92 92 91 90 86 83 69 55 43 37 43 81 80 78 75 76 72
125 124 136 134 136 137 137 135 135 134 132 126 121 120 118 119 120 118 114 109 108 105 104 101 97 95 94 92 92 92 88 85 69 48 40 37 48 83 85 82 77 78 77
126 117 133 130 132 132 132 128 126 129 132 131 127 123 120 117 119 121 120 118 116 111 107 103 99 96 97 96 94 94 88 83 71 52 40 42 66 80 82 82 80 81 79
124 110 115 123 126 128 128 122 119 122 125 128 128 126 121 118 121 128 126 126 120 115 111 107 100 95 92 92 92 90 81 74 68 50 44 44 74 81 82 80 81 83 81
112 107 99 104 116 123 123 116 110 110 112 116 119 117 115 114 111 114 116 119 114 108 100 97 97 95 93 90 88 85 76 68 60 43 35 37 77 83 83 82 81 83 81
107 108 108 94 92 92 101 105 105 101 99 102 102 100 99 98 96 100 110 114 113 107 101 97 96 93 90 87 84 77 71 62 51 40 18 40 70 81 78 76 76 77 80
125 119 123 117 108 105 107 103 105 103 96 96 95 95 92 82 78 82 90 102 110 108 104 102 98 90 82 79 76 69 63 52 44 27 360 40 67 82 79 78 80 81 82
179 175 154 152 145 131 121 100 97 99 99 93 89 92 88 85 79 81 83 87 92 97 101 101 94 82 72 62 59 59 53 47 40 7 350 23 67 81 88 89 82 88 88
187 177 175 171 158 144 130 121 105 102 104 96 96 94 94 85 77 75 80 72 76 83 82 86 80 69 71 70 65 63 55 44 21 354 351 20 45 65 73 89 86 92 94
178 193 190 175 161 155 143 141 135 133 128 127 121 116 116 110 98 97 89 84 78 84 95 87 94 84 79 78 85 81 61 47 18 6 5 20 22 31 44 63 84 80 83
187 193 198 183 175 169 156 156 149 151 147 146 134 136 133 134 133 117 111 103 97 93 107 109 110 105 92 77 74 81 68 61 48 32 5 16 18 11 11 7 357 342 317
199 197 192 189 184 175 177 172 169 163 156 149 146 149 146 139 140 135 130 126 118 122 122 123 129 127 112 91 65 62 86 75 59 43 14 8 4 354 346 334 325 318 316
202 195 190 189 183 184 186 183 173 170 168 165 166 161 157 144 146 147 147 146 147 130 116 106 97 94 96 80 57 32 57 67 65 18 22 4 340 341 339 329 315 314 313
189 188 190 184 185 194 196 192 181 175 174 176 172 170 169 158 152 149 153 163 142 123 116 118 102 92 89 76 43 7 35 50 40 340 16 11 348 332 327 331 326 322 311
194 187 185 182 184 194 195 190 183 176 180 179 172 172 175 166 160 156 162 157 138 128 120 123 90 95 114 57 17 359 14 12 301 326 325 319 320 326 313 325 327 323 311
193 187 184 185 184 176 162 159 168 173 185 181 176 178 174 172 166 159 156 152 145 140 136 124 108 73 108 87 44 359 322 298 303 276 267 297 307 304 303 308 318 314 309
185 186 188 187 187 169 166 182 189 199 199 193 187 183 180 174 172 167 163 161 159 163 170 157 138 115 78 64 61 355 327 281 250 254 252 273 293 292 296 295 299 300 304
198 201 198 197 191 190 191 196 196 184 192 184 173 178 181 178 179 178 172 173 171 165 161 163 147 147 138 117 113 85 326 321 305 259 252 243 261 276 278 279 281 285 288
209 209 208 204 196 195 181 149 129 107 94 149 192 204 199 182 181 181 180 175 176 175 181 185 177 169 174 191 137 151 160 242 301 306 282 265 270 259 263 274 270 273 276
225 215 213 202 196 189 173 167 163 174 192 203 199 208 202 184 180 182 180 180 181 185 186 188 184 183 168 182 202 211 173 171 182 302 307 296 285 266 263 267 269 270 267
231 216 210 199 194 185 178 181 179 185 196 173 164 192 196 196 197 191 186 186 189 192 193 189 184 188 184 182 182 176 179 191 179 199 277 299 297 260 249 252 261 263 262
15 120 190 185 192 183 179 180 184 187 177 163 176 196 202 205 212 206 198 199 199 198 200 200 194 195 197 189 187 182 176 183 194 196 236 269 281 281 269 258 253 256 256